This demonstration page uses our WeatherBlox Daily Observations layout. Learn more.

Left ArrowRight Arrow

39.29038, -76.61219

Hourly Observations for June 28, 2020

Temp ( °F °C ) Dew Point ( °F °C ) Humidity (%) Winds ( mph kmh ) Pressure ( in mb ) Visibility ( mi km ) Precip ( " mm )
12:54 am 00:54 Cloudy 77 25 71 21.7 82 82 WNW 3 6 29.78 1008 10 16 0.00 0.00
1:54 am 01:54 Mostly Cloudy 76 24.4 70 21.1 82 82 SW 3 6 29.78 1008 10 16 0.00 0.00
2:54 am 02:54 Mostly Cloudy 75 23.9 67 19.4 76 76 W 6 9 29.76 1008 10 16 0.00 0.00
3:54 am 03:54 Mostly Cloudy 74 23.3 65 18.3 74 74 WNW 3 6 29.76 1008 10 16 0.00 0.00
4:54 am 04:54 Mostly Cloudy 74 23.3 65 18.3 74 74 Calm 29.76 1008 10 16 0.00 0.00
5:54 am 05:54 Mostly Cloudy 73 22.8 65 18.3 76 76 WNW 7 11 29.76 1008 10 16 0.00 0.00
6:54 am 06:54 Mostly Cloudy 77 25 66 18.9 69 69 WNW 7 11 29.78 1009 10 16 0.00 0.00
7:54 am 07:54 Mostly Cloudy 77 25 66 18.9 69 69 WNW 3 6 29.79 1009 10 16 0.00 0.00
8:54 am 08:54 Partly Cloudy 82 27.8 67 19.4 60 60 WSW 6 9 29.79 1009 10 16 0.00 0.00
9:54 am 09:54 Partly Cloudy 84 28.9 67 19.4 57 57 VRB 6 9 29.78 1009 10 16 0.00 0.00
10:54 am 10:54 Mostly Cloudy 85 29.4 68 20 57 57 VRB 6 9 29.79 1009 10 16 0.00 0.00
11:54 am 11:54 Mostly Cloudy 87 30.6 69 20.6 55 55 WSW 8 13 29.78 1008 10 16 0.00 0.00
12:54 pm 12:54 Mostly Cloudy 87 30.6 69 20.6 55 55 W 8 13 29.76 1008 10 16 0.00 0.00
1:54 pm 13:54 Mostly Cloudy 89 31.7 69 20.6 52 52 WSW 9 15 29.74 1007 10 16 0.00 0.00
2:54 pm 14:54 Mostly Cloudy 89 31.7 68 20 50 50 WSW 14 22 29.73 1007 10 16 0.00 0.00
3:54 pm 15:54 Mostly Cloudy 88 31.1 68 20 52 52 W 12 19 29.71 1006 10 16 0.00 0.00
4:54 pm 16:54 Mostly Cloudy 88 31.1 69 20.6 54 54 W 13 20 29.70 1006 10 16 0.00 0.00
5:54 pm 17:54 Mostly Cloudy 86 30 67 19.4 53 53 W 13 20 29.70 1006 10 16 0.00 0.00
6:54 pm 18:54 Mostly Cloudy 85 29.4 68 20 57 57 WSW 10 17 29.71 1006 10 16 0.00 0.00
7:54 pm 19:54 Mostly Cloudy 83 28.3 68 20 61 61 W 6 9 29.72 1007 10 16 0.00 0.00
8:54 pm 20:54 Mostly Cloudy 83 28.3 68 20 61 61 ESE 6 9 29.74 1007 10 16 0.00 0.00
9:54 pm 21:54 Partly Cloudy 79 26.1 70 21.1 74 74 Calm 29.75 1008 10 16 0.00 0.00
10:54 pm 22:54 Partly Cloudy 77 25 70 21.1 79 79 Calm 29.75 1008 10 16 0.00 0.00
11:54 pm 23:54 Partly Cloudy 74 23.3 69 20.6 85 85 Calm 29.75 1008 10 16 0.00 0.00

Powered by AerisWeather